KTZ207 KPWM-KPQI

Flight info

Callsign KTZ207
Flight time 0h 55m
Altitude 17000
Route AUG V39 PQI
Aircraft AT46/M-SDFGIRY/S

Departure

Time 2026-04-30 07:29
Airport Portland International Jetport (KPWM)

Arrival

Time 2026-04-30 08:24
Airport Presque Isle International Airport (KPQI)
Time Latitude Longitude Altitude Speed Heading
2026-04-30 07:19 43.64770 -70.31441 65 ft 0 kts 138°
2026-04-30 07:24 43.64769 -70.31440 65 ft 1 kts 138°
2026-04-30 07:24 43.64755 -70.31423 60 ft 4 kts 144°
2026-04-30 07:24 43.64713 -70.31414 60 ft 9 kts 183°
2026-04-30 07:24 43.64653 -70.31429 62 ft 10 kts 205°
2026-04-30 07:25 43.64624 -70.31507 64 ft 9 kts 276°
2026-04-30 07:25 43.64631 -70.31589 66 ft 8 kts 277°
2026-04-30 07:25 43.64635 -70.31664 66 ft 8 kts 275°
2026-04-30 07:25 43.64643 -70.31774 71 ft 12 kts 277°
2026-04-30 07:26 43.64650 -70.31899 73 ft 17 kts 277°
2026-04-30 07:26 43.64661 -70.32050 75 ft 14 kts 274°
2026-04-30 07:26 43.64669 -70.32165 78 ft 10 kts 277°
2026-04-30 07:26 43.64676 -70.32253 85 ft 9 kts 275°
2026-04-30 07:27 43.64681 -70.32353 80 ft 17 kts 274°
2026-04-30 07:27 43.64679 -70.32514 79 ft 14 kts 264°
2026-04-30 07:27 43.64647 -70.32587 82 ft 6 kts 172°
2026-04-30 07:27 43.64608 -70.32578 82 ft 4 kts 154°
2026-04-30 07:28 43.64597 -70.32566 82 ft 1 kts 135°
2026-04-30 07:28 43.64594 -70.32562 82 ft 1 kts 136°
2026-04-30 07:28 43.64579 -70.32497 81 ft 19 kts 92°
2026-04-30 07:28 43.64544 -70.31869 69 ft 108 kts 94°
2026-04-30 07:29 43.64503 -70.31096 304 ft 131 kts 97°
2026-04-30 07:29 43.64327 -70.29377 1473 ft 131 kts 106°
2026-04-30 07:29 43.64229 -70.27890 1633 ft 180 kts 96°
2026-04-30 07:29 43.64178 -70.26010 1780 ft 205 kts 96°
2026-04-30 07:30 43.64156 -70.22937 3249 ft 183 kts 96°
2026-04-30 07:30 43.64233 -70.21204 4040 ft 183 kts 83°
2026-04-30 07:30 43.65021 -70.19774 4712 ft 200 kts 34°
2026-04-30 07:31 43.66381 -70.19286 5272 ft 205 kts
2026-04-30 07:31 43.67743 -70.18794 5760 ft 206 kts 33°
2026-04-30 07:31 43.68998 -70.17808 6351 ft 209 kts 33°
2026-04-30 07:31 43.70294 -70.16870 6938 ft 210 kts 30°
2026-04-30 07:32 43.71627 -70.16018 7511 ft 212 kts 27°
2026-04-30 07:32 43.72990 -70.15208 8073 ft 214 kts 26°
2026-04-30 07:32 43.74369 -70.14412 8632 ft 216 kts 25°
2026-04-30 07:32 43.75763 -70.13621 9179 ft 218 kts 25°
2026-04-30 07:33 43.77164 -70.12805 9729 ft 219 kts 26°
2026-04-30 07:33 43.78553 -70.11971 10236 ft 221 kts 26°
2026-04-30 07:33 43.79974 -70.11118 10716 ft 223 kts 26°
2026-04-30 07:33 43.81408 -70.10264 11198 ft 224 kts 26°
2026-04-30 07:34 43.82832 -70.09410 11671 ft 226 kts 26°
2026-04-30 07:34 43.84282 -70.08542 12144 ft 228 kts 26°
2026-04-30 07:34 43.85744 -70.07667 12615 ft 229 kts 26°
2026-04-30 07:34 43.87220 -70.06782 13091 ft 231 kts 26°
2026-04-30 07:35 43.88701 -70.05894 13553 ft 233 kts 26°
2026-04-30 07:35 43.90177 -70.05008 13981 ft 234 kts 26°
2026-04-30 07:35 43.91683 -70.04103 14355 ft 236 kts 26°
2026-04-30 07:35 43.93190 -70.03198 14739 ft 237 kts 26°
2026-04-30 07:36 43.94720 -70.02278 15123 ft 239 kts 26°
2026-04-30 07:36 43.96257 -70.01352 15501 ft 241 kts 26°
2026-04-30 07:36 43.97785 -70.00432 15852 ft 243 kts 26°
2026-04-30 07:36 43.99338 -69.99497 16204 ft 244 kts 26°
2026-04-30 07:37 44.00899 -69.98554 16541 ft 246 kts 26°
2026-04-30 07:37 44.02487 -69.97597 16836 ft 250 kts 26°
2026-04-30 07:37 44.04130 -69.96604 16932 ft 263 kts 26°
2026-04-30 07:37 44.05847 -69.95565 16969 ft 275 kts 26°
2026-04-30 07:38 44.07619 -69.94498 16985 ft 284 kts 26°
2026-04-30 07:38 44.09464 -69.93380 16991 ft 292 kts 26°
2026-04-30 07:38 44.11346 -69.92244 16995 ft 297 kts 26°
2026-04-30 07:38 44.13256 -69.91087 16992 ft 300 kts 26°
2026-04-30 07:39 44.15182 -69.89921 16990 ft 303 kts 26°
2026-04-30 07:39 44.17119 -69.88747 16992 ft 305 kts 26°
2026-04-30 07:39 44.19053 -69.87574 16991 ft 306 kts 26°
2026-04-30 07:39 44.21014 -69.86383 16992 ft 307 kts 25°
2026-04-30 07:40 44.22974 -69.85191 16992 ft 308 kts 25°
2026-04-30 07:40 44.24944 -69.83992 16989 ft 308 kts 25°
2026-04-30 07:40 44.26916 -69.82792 16989 ft 309 kts 25°
2026-04-30 07:40 44.28862 -69.81606 16989 ft 309 kts 25°
2026-04-30 07:41 44.30834 -69.80410 16991 ft 309 kts 25°
2026-04-30 07:41 44.32767 -69.79114 16988 ft 306 kts 34°
2026-04-30 07:41 44.34512 -69.77408 16992 ft 306 kts 40°
2026-04-30 07:41 44.36202 -69.75592 16992 ft 306 kts 41°
2026-04-30 07:42 44.37908 -69.73789 16989 ft 307 kts 39°
2026-04-30 07:42 44.39647 -69.72054 16994 ft 307 kts 38°
2026-04-30 07:42 44.41396 -69.70332 16989 ft 307 kts 38°
2026-04-30 07:42 44.43139 -69.68613 16984 ft 307 kts 38°
2026-04-30 07:43 44.44894 -69.66883 16986 ft 310 kts 38°
2026-04-30 07:43 44.46642 -69.65156 16985 ft 312 kts 38°
2026-04-30 07:43 44.48428 -69.63386 16982 ft 314 kts 38°
2026-04-30 07:43 44.50214 -69.61613 16983 ft 315 kts 38°
2026-04-30 07:44 44.52006 -69.59834 16984 ft 316 kts 38°
2026-04-30 07:44 44.53803 -69.58049 16984 ft 316 kts 38°
2026-04-30 07:44 44.55609 -69.56255 16982 ft 317 kts 38°
2026-04-30 07:44 44.57388 -69.54488 16988 ft 317 kts 38°
2026-04-30 07:45 44.59191 -69.52695 16984 ft 317 kts 38°
2026-04-30 07:45 44.60991 -69.50903 16986 ft 317 kts 38°
2026-04-30 07:45 44.62797 -69.49103 16991 ft 317 kts 38°
2026-04-30 07:45 44.64601 -69.47303 16987 ft 318 kts 38°
2026-04-30 07:46 44.66385 -69.45520 16991 ft 318 kts 38°
2026-04-30 07:46 44.68193 -69.43728 16994 ft 318 kts 37°
2026-04-30 07:46 44.70017 -69.41942 16997 ft 318 kts 37°
2026-04-30 07:46 44.71836 -69.40166 16997 ft 318 kts 37°
2026-04-30 07:47 44.73640 -69.38367 16997 ft 317 kts 38°
2026-04-30 07:47 44.75442 -69.36561 16998 ft 317 kts 38°
2026-04-30 07:47 44.77244 -69.34752 17004 ft 317 kts 38°
2026-04-30 07:47 44.79023 -69.32973 17006 ft 317 kts 38°
2026-04-30 07:48 44.80827 -69.31155 17011 ft 318 kts 38°
2026-04-30 07:48 44.82629 -69.29344 17013 ft 318 kts 38°
2026-04-30 07:48 44.84431 -69.27537 17014 ft 317 kts 38°
2026-04-30 07:48 44.86204 -69.25746 17014 ft 317 kts 38°
2026-04-30 07:49 44.88012 -69.23928 17019 ft 317 kts 38°
2026-04-30 07:49 44.89815 -69.22112 17019 ft 317 kts 38°
2026-04-30 07:49 44.91589 -69.20322 17022 ft 317 kts 38°
2026-04-30 07:49 44.93381 -69.18509 17020 ft 317 kts 38°
2026-04-30 07:50 44.95175 -69.16700 17020 ft 317 kts 38°
2026-04-30 07:50 44.96973 -69.14881 17026 ft 317 kts 38°
2026-04-30 07:50 44.98745 -69.13082 17027 ft 317 kts 38°
2026-04-30 07:50 45.00537 -69.11273 17029 ft 317 kts 38°
2026-04-30 07:51 45.02337 -69.09466 17030 ft 316 kts 37°
2026-04-30 07:51 45.04118 -69.07644 17030 ft 316 kts 38°
2026-04-30 07:51 45.05908 -69.05819 17032 ft 316 kts 38°
2026-04-30 07:51 45.07703 -69.03997 17035 ft 316 kts 38°
2026-04-30 07:52 45.09492 -69.02180 17034 ft 316 kts 38°
2026-04-30 07:52 45.11263 -69.00381 17036 ft 316 kts 38°
2026-04-30 07:52 45.13056 -68.98548 17031 ft 316 kts 37°
2026-04-30 07:52 45.14842 -68.96733 17034 ft 315 kts 37°
2026-04-30 07:53 45.16603 -68.94933 17041 ft 315 kts 37°
2026-04-30 07:53 45.18389 -68.93111 17038 ft 315 kts 37°
2026-04-30 07:53 45.20172 -68.91291 17043 ft 315 kts 37°
2026-04-30 07:53 45.21935 -68.89486 17040 ft 315 kts 38°
2026-04-30 07:54 45.23715 -68.87667 17047 ft 314 kts 38°
2026-04-30 07:54 45.25472 -68.85869 17041 ft 314 kts 38°
2026-04-30 07:54 45.27248 -68.84049 17048 ft 314 kts 38°
2026-04-30 07:54 45.29025 -68.82224 17051 ft 314 kts 38°
2026-04-30 07:55 45.30801 -68.80402 17055 ft 314 kts 38°
2026-04-30 07:55 45.32551 -68.78603 17051 ft 313 kts 37°
2026-04-30 07:55 45.34324 -68.76780 17053 ft 313 kts 37°
2026-04-30 07:55 45.36094 -68.74958 17057 ft 313 kts 37°
2026-04-30 07:56 45.37862 -68.73138 17054 ft 313 kts 37°
2026-04-30 07:56 45.39606 -68.71340 17053 ft 313 kts 37°
2026-04-30 07:56 45.41372 -68.69517 17057 ft 313 kts 37°
2026-04-30 07:56 45.43137 -68.67697 17054 ft 313 kts 37°
2026-04-30 07:57 45.44898 -68.65878 17053 ft 313 kts 37°
2026-04-30 07:57 45.46668 -68.64049 17055 ft 313 kts 37°
2026-04-30 07:57 45.48407 -68.62251 17053 ft 312 kts 37°
2026-04-30 07:57 45.50173 -68.60420 17054 ft 312 kts 37°
2026-04-30 07:58 45.51936 -68.58587 17049 ft 313 kts 37°
2026-04-30 07:58 45.53703 -68.56756 17052 ft 312 kts 38°
2026-04-30 07:58 45.55440 -68.54956 17047 ft 312 kts 37°
2026-04-30 07:58 45.57204 -68.53131 17051 ft 312 kts 37°
2026-04-30 07:59 45.59034 -68.51440 17045 ft 311 kts 25°
2026-04-30 07:59 45.61070 -68.50503 17050 ft 311 kts 13°
2026-04-30 07:59 45.63194 -68.49881 17054 ft 311 kts 10°
2026-04-30 08:00 45.67447 -68.48588 17053 ft 312 kts 13°
2026-04-30 08:00 45.69563 -68.47831 17053 ft 313 kts 14°
2026-04-30 08:00 45.71652 -68.47087 17054 ft 313 kts 13°
2026-04-30 08:00 45.73780 -68.46347 17041 ft 313 kts 13°
2026-04-30 08:01 45.75901 -68.45605 17045 ft 313 kts 13°
2026-04-30 08:01 45.78024 -68.44862 17049 ft 313 kts 13°
2026-04-30 08:01 45.80144 -68.44125 17053 ft 313 kts 13°
2026-04-30 08:01 45.82243 -68.43390 17061 ft 314 kts 13°
2026-04-30 08:02 45.86490 -68.41904 17060 ft 314 kts 13°
2026-04-30 08:02 45.88624 -68.41158 17060 ft 313 kts 13°
2026-04-30 08:03 45.92849 -68.39672 17065 ft 313 kts 13°
2026-04-30 08:03 45.97068 -68.38190 17076 ft 313 kts 13°
2026-04-30 08:03 45.99185 -68.37447 17076 ft 313 kts 13°
2026-04-30 08:04 46.01308 -68.36698 17076 ft 313 kts 13°
2026-04-30 08:04 46.03427 -68.35954 17075 ft 313 kts 13°
2026-04-30 08:04 46.05525 -68.35213 17075 ft 313 kts 13°
2026-04-30 08:04 46.07657 -68.34462 17083 ft 313 kts 13°
2026-04-30 08:05 46.09781 -68.33709 17086 ft 313 kts 13°
2026-04-30 08:05 46.11903 -68.32961 17081 ft 313 kts 13°
2026-04-30 08:05 46.13994 -68.32220 17086 ft 313 kts 13°
2026-04-30 08:05 46.16122 -68.31468 17089 ft 313 kts 13°
2026-04-30 08:06 46.18241 -68.30717 17088 ft 313 kts 13°
2026-04-30 08:06 46.20360 -68.29966 17089 ft 313 kts 13°
2026-04-30 08:06 46.22455 -68.29223 17087 ft 313 kts 13°
2026-04-30 08:06 46.24582 -68.28465 17091 ft 313 kts 13°
2026-04-30 08:07 46.26704 -68.27719 17092 ft 313 kts 13°
2026-04-30 08:07 46.28831 -68.26994 17092 ft 313 kts
2026-04-30 08:07 46.30971 -68.26899 17092 ft 310 kts 354°
2026-04-30 08:07 46.33112 -68.27221 17095 ft 302 kts 351°
2026-04-30 08:08 46.35146 -68.27550 17089 ft 285 kts 352°
2026-04-30 08:08 46.37065 -68.27810 17042 ft 269 kts 353°
2026-04-30 08:08 46.38878 -68.28008 16958 ft 255 kts 354°
2026-04-30 08:08 46.40585 -68.28192 16858 ft 244 kts 353°
2026-04-30 08:09 46.42259 -68.28372 16659 ft 239 kts 353°
2026-04-30 08:09 46.43915 -68.28551 16387 ft 237 kts 354°
2026-04-30 08:09 46.45556 -68.28728 15966 ft 237 kts 354°
2026-04-30 08:09 46.47201 -68.28907 15580 ft 236 kts 354°
2026-04-30 08:10 46.48837 -68.29083 15163 ft 235 kts 354°
2026-04-30 08:10 46.50467 -68.29257 14780 ft 234 kts 354°
2026-04-30 08:10 46.52075 -68.29429 14414 ft 233 kts 354°
2026-04-30 08:10 46.53695 -68.29604 14046 ft 232 kts 354°
2026-04-30 08:11 46.55305 -68.29778 13662 ft 231 kts 354°
2026-04-30 08:11 46.56911 -68.29951 13263 ft 230 kts 354°
2026-04-30 08:11 46.58481 -68.30120 12880 ft 228 kts 354°
2026-04-30 08:11 46.60066 -68.30292 12490 ft 227 kts 354°
2026-04-30 08:12 46.61635 -68.30462 12108 ft 226 kts 354°
2026-04-30 08:12 46.63198 -68.30634 11733 ft 224 kts 354°
2026-04-30 08:12 46.64751 -68.30806 11364 ft 223 kts 354°
2026-04-30 08:12 46.66302 -68.30973 10996 ft 222 kts 354°
2026-04-30 08:13 46.67837 -68.31141 10643 ft 220 kts 354°
2026-04-30 08:13 46.69346 -68.31306 10277 ft 220 kts 353°
2026-04-30 08:13 46.70866 -68.31472 9922 ft 218 kts 354°
2026-04-30 08:13 46.72376 -68.31635 9530 ft 217 kts 353°
2026-04-30 08:14 46.73883 -68.31800 9138 ft 216 kts 354°
2026-04-30 08:14 46.75384 -68.31962 8744 ft 215 kts 354°
2026-04-30 08:14 46.76374 -68.32071 8509 ft 214 kts 353°
2026-04-30 08:14 46.78341 -68.32288 8026 ft 213 kts 354°
2026-04-30 08:15 46.79823 -68.32453 7670 ft 212 kts 354°
2026-04-30 08:15 46.80797 -68.32547 7420 ft 210 kts 358°
2026-04-30 08:15 46.82172 -68.31925 6992 ft 209 kts 40°
2026-04-30 08:15 46.83133 -68.30408 6712 ft 199 kts 59°
2026-04-30 08:16 46.83838 -68.28701 6430 ft 193 kts 69°
2026-04-30 08:16 46.84349 -68.26949 6142 ft 188 kts 77°
2026-04-30 08:16 46.84733 -68.25124 5864 ft 187 kts 82°
2026-04-30 08:16 46.85047 -68.23276 5594 ft 187 kts 84°
2026-04-30 08:17 46.85348 -68.21424 5311 ft 187 kts 83°
2026-04-30 08:17 46.85664 -68.19574 5048 ft 186 kts 83°
2026-04-30 08:17 46.85975 -68.17769 4780 ft 185 kts 83°
2026-04-30 08:17 46.86294 -68.15952 4498 ft 183 kts 83°
2026-04-30 08:18 46.86575 -68.14149 4216 ft 174 kts 94°
2026-04-30 08:18 46.86194 -68.12655 3964 ft 150 kts 143°
2026-04-30 08:18 46.85380 -68.11772 3745 ft 144 kts 152°
2026-04-30 08:18 46.84537 -68.11052 3534 ft 140 kts 158°
2026-04-30 08:19 46.83661 -68.10461 3334 ft 137 kts 163°
2026-04-30 08:19 46.82773 -68.09993 3124 ft 134 kts 166°
2026-04-30 08:19 46.81857 -68.09591 2913 ft 140 kts 168°
2026-04-30 08:19 46.80903 -68.09230 2737 ft 144 kts 168°
2026-04-30 08:20 46.79972 -68.08916 2532 ft 128 kts 169°
2026-04-30 08:20 46.79165 -68.08648 2359 ft 108 kts 169°
2026-04-30 08:20 46.78499 -68.08408 2180 ft 90 kts 168°
2026-04-30 08:20 46.77907 -68.08189 2074 ft 85 kts 167°
2026-04-30 08:21 46.77328 -68.07974 1961 ft 88 kts 166°
2026-04-30 08:21 46.76729 -68.07751 1861 ft 92 kts 166°
2026-04-30 08:21 46.76103 -68.07521 1736 ft 92 kts 165°
2026-04-30 08:21 46.75478 -68.07301 1595 ft 93 kts 165°
2026-04-30 08:22 46.74839 -68.07069 1446 ft 95 kts 162°
2026-04-30 08:22 46.74215 -68.06779 1322 ft 93 kts 163°
2026-04-30 08:22 46.73591 -68.06544 1216 ft 92 kts 167°
2026-04-30 08:22 46.72973 -68.06336 1109 ft 93 kts 167°
2026-04-30 08:23 46.72336 -68.06094 1034 ft 96 kts 166°
2026-04-30 08:23 46.71683 -68.05856 922 ft 96 kts 165°
2026-04-30 08:23 46.71031 -68.05635 809 ft 97 kts 165°
2026-04-30 08:23 46.70392 -68.05394 680 ft 93 kts 166°
2026-04-30 08:24 46.69794 -68.05180 535 ft 82 kts 166°
2026-04-30 08:24 46.69303 -68.05001 505 ft 64 kts 164°
2026-04-30 08:24 46.68945 -68.04861 487 ft 42 kts 165°
2026-04-30 08:24 46.68706 -68.04774 482 ft 28 kts 166°
2026-04-30 08:25 46.68561 -68.04723 476 ft 16 kts 166°
2026-04-30 08:25 46.68501 -68.04679 474 ft 4 kts 89°
2026-04-30 08:25 46.68518 -68.04581 478 ft 11 kts 75°
2026-04-30 08:25 46.68544 -68.04489 475 ft 10 kts 40°
2026-04-30 08:26 46.68621 -68.04480 477 ft 13 kts 341°
2026-04-30 08:26 46.68711 -68.04515 475 ft 13 kts 346°
2026-04-30 08:26 46.68802 -68.04548 484 ft 14 kts 346°
2026-04-30 08:26 46.68894 -68.04583 481 ft 14 kts 346°
2026-04-30 08:27 46.68986 -68.04614 489 ft 13 kts 346°
2026-04-30 08:27 46.69077 -68.04645 496 ft 13 kts 345°
2026-04-30 08:27 46.69162 -68.04679 500 ft 10 kts 349°
2026-04-30 08:27 46.69202 -68.04637 500 ft 7 kts 104°
2026-04-30 08:28 46.69179 -68.04583 491 ft 5 kts 120°
2026-04-30 08:28 46.69178 -68.04582 491 ft 0 kts 120°